[[{"header":{"parameterUnit":"m.s-1","parameterCategory":1,"la1":30.2992,"la2":30.254,"lo1":-89.0895,"lo2":-89.0443,"dy":0.0025,"dx":0.0025,"nx":19,"ny":19,"refTime":"2026-03-20T03:00:00:Z","depth":0,"parameterNumber":2,"parameterNumberName":"U-component_of_WINDS"},"data":[0,0,0,2.8379,2.8382,2.8528,2.8529,2.8714,2.8715,0,0,0,0,0,0,0,0,0,0,0,2.8336,2.8337,2.8378,2.8382,2.8528,2.8529,2.8713,2.8715,0,0,0,0,0,0,0,0,0,0,0,2.8335,2.8337,2.8339,2.8383,2.8528,2.8529,2.8713,2.8603,0,0,0,0,0,0,0,0,0,0,2.8461,2.8423,2.8337,2.8339,2.8383,2.8528,2.8529,2.8598,2.861,2.8647,0,2.8682,0,2.8702,2.8728,2.8728,0,0,0,2.8381,2.8413,2.8452,2.8339,2.8385,2.8528,2.8462,2.8604,2.8618,2.8663,2.8685,2.8692,2.8705,2.8729,2.873,2.8949,2.895,0,0,2.8373,2.8363,2.8442,2.8461,2.844,2.8457,2.8466,2.8613,2.8635,2.8686,2.8696,2.8708,2.873,2.8732,2.8948,2.8949,0,0,0,2.835,2.8357,2.8392,2.8453,2.848,2.8461,2.8472,2.8629,2.8641,2.8698,2.871,2.8731,2.8734,2.8947,2.8948,2.8988,0,0,0,2.8345,2.8344,2.8389,2.8384,2.8477,2.8557,2.8485,2.8631,2.8648,2.8709,2.8731,2.8735,2.8945,2.8947,2.8984,2.9008,0,0,0,2.8326,2.8342,2.8363,2.8383,2.8446,2.8555,2.8575,2.8635,2.8655,2.8729,2.8736,2.8945,2.8947,2.8981,2.9003,2.9059,0,0,0,2.8303,2.8399,2.8364,2.8476,2.8444,2.8579,2.8574,2.8676,2.8744,2.8732,2.8946,2.8948,2.898,2.9,2.9056,2.9102,2.9122,0,0,2.8419,2.8413,2.848,2.8452,2.859,2.8558,2.8701,2.8774,2.8791,2.8894,2.89,2.8986,2.9003,2.9058,2.924,2.9255,0,0,0,2.8513,2.856,2.8599,2.8663,2.872,2.8769,2.8821,2.8847,2.8935,2.8843,2.9023,2.9034,2.9067,2.9089,2.9102,2.9129,2.8959,2.8959,2.8959,2.8661,2.8676,2.8786,2.8817,2.8879,2.8929,2.8979,2.9022,2.9022,2.9064,2.9094,2.9202,2.9228,2.9238,2.9266,2.9123,2.9123,2.9123,2.9123,2.8829,2.8896,2.889,2.8994,2.9007,2.9094,2.9145,2.914,2.9221,2.9182,2.9212,2.9165,2.9255,2.9279,2.9126,2.9126,2.9125,2.9125,2.9125,2.8925,2.8959,2.8989,2.908,2.9148,2.9176,2.9253,2.9264,2.9275,2.9305,2.9335,2.9334,2.9331,2.9319,2.9319,2.932,2.932,2.932,2.9321,2.9011,2.9044,2.9107,2.9173,2.9213,2.9267,2.9316,2.9355,2.9401,2.9403,2.9403,2.9394,2.9262,2.9226,2.9327,2.9325,2.9325,2.9324,2.9324,2.917,2.9135,2.9233,2.9273,2.9349,2.9412,2.9426,2.9503,2.9538,2.9574,2.9559,2.9461,2.9455,2.9445,2.9415,2.9558,2.9558,2.9558,2.9558,2.9248,2.9247,2.9347,2.9408,2.9471,2.9491,2.9597,2.9635,2.9668,2.9689,2.9671,2.9633,2.9622,2.9623,2.9609,2.9581,2.9763,2.9763,2.9764,2.9344,2.9348,2.9438,2.947,2.9529,2.9578,2.9677,2.9746,2.9777,2.9772,2.9705,2.9696,2.9636,2.9616,2.9607,2.9585,2.9534,0,0]},{"header":{"parameterUnit":"m.s-1","parameterCategory":1,"la1":30.2992,"la2":30.254,"lo1":-89.0895,"lo2":-89.0443,"dy":0.0025,"dx":0.0025,"nx":19,"ny":19,"refTime":"2026-03-20T03:00:00:Z","depth":0,"parameterNumber":3,"parameterNumberName":"V-component_of_WINDS"},"data":[0,0,0,3.0911,3.0911,3.089,3.089,3.0883,3.0883,0,0,0,0,0,0,0,0,0,0,0,3.0931,3.0932,3.0911,3.0911,3.0891,3.089,3.0883,3.0883,0,0,0,0,0,0,0,0,0,0,0,3.0931,3.0932,3.0932,3.0911,3.0891,3.089,3.0883,3.0891,0,0,0,0,0,0,0,0,0,0,3.0907,3.0941,3.0932,3.0932,3.0911,3.0891,3.089,3.0891,3.089,3.0901,0,3.0916,0,3.09,3.0884,3.0884,0,0,0,3.09,3.0941,3.0923,3.0932,3.0911,3.0891,3.0897,3.089,3.089,3.09,3.0916,3.0915,3.09,3.0884,3.0884,3.0984,3.0985,0,0,3.0901,3.0935,3.0924,3.0923,3.0931,3.0897,3.0896,3.089,3.0908,3.0916,3.0914,3.0899,3.0884,3.0884,3.0983,3.0985,0,0,0,3.0912,3.0936,3.0917,3.0924,3.0919,3.0897,3.0896,3.0908,3.09,3.0914,3.0899,3.0884,3.0884,3.0982,3.0984,3.1064,0,0,0,3.0912,3.0942,3.0919,3.0939,3.092,3.0914,3.0915,3.09,3.0898,3.0899,3.0884,3.0884,3.0981,3.0983,3.106,3.1097,0,0,0,3.0928,3.0944,3.0946,3.0941,3.0934,3.0914,3.0904,3.0899,3.089,3.0884,3.0884,3.098,3.0983,3.1056,3.109,3.1131,0,0,0,3.0954,3.1019,3.0948,3.1015,3.0934,3.0965,3.0904,3.0925,3.0929,3.0884,3.0981,3.0984,3.1055,3.1086,3.1127,3.1171,3.1193,0,0,3.1055,3.1033,3.1069,3.1004,3.1057,3.0965,3.1028,3.1,3.0968,3.098,3.0982,3.1061,3.1089,3.113,3.1307,3.1325,0,0,0,3.1112,3.1139,3.1145,3.1151,3.1132,3.1116,3.1075,3.1064,3.1073,3.0982,3.1087,3.1103,3.1125,3.1144,3.1159,3.1175,3.0995,3.0994,3.0994,3.1304,3.1259,3.1314,3.1267,3.1273,3.1229,3.1229,3.1205,3.1159,3.1185,3.1188,3.1301,3.1325,3.1336,3.1353,3.1208,3.1209,3.1209,3.1209,3.1445,3.1474,3.141,3.144,3.1391,3.1416,3.1374,3.134,3.1353,3.1296,3.1313,3.1253,3.1357,3.1369,3.1215,3.1214,3.1213,3.1213,3.1212,3.1564,3.157,3.1556,3.1558,3.1564,3.1512,3.1527,3.1482,3.144,3.1457,3.1453,3.1452,3.1443,3.1459,3.1459,3.146,3.146,3.146,3.1461,3.1693,3.1674,3.1693,3.1676,3.1672,3.1661,3.1615,3.1609,3.159,3.1556,3.1555,3.1504,3.1376,3.1344,3.1466,3.1465,3.1465,3.1464,3.1464,3.185,3.1807,3.1837,3.1834,3.1807,3.1814,3.1756,3.1747,3.1735,3.1743,3.1688,3.1601,3.1575,3.1562,3.1535,3.1699,3.1699,3.1699,3.1699,3.1949,3.1931,3.195,3.1946,3.1937,3.1887,3.1918,3.1881,3.1836,3.1825,3.1794,3.1755,3.1744,3.1723,3.1708,3.1681,3.1879,3.1879,3.1879,3.2042,3.2021,3.2058,3.2014,3.1989,3.1968,3.1994,3.1989,3.1929,3.1886,3.1814,3.1806,3.1742,3.1724,3.1679,3.1656,3.1606,0,0]}]]